Location: Darlington Observatory
(36.4817°N, 105.8156°W)
Time: 23:51:13
(UTC-07:00)

Daily predictions for brighter satellites

Satellite Brightness Start Highest point End
(mag) Time Altitude Azimuth Time Altitude Azimuth Time Altitude Azimuth
USA 215 3.8 17:31:17 10° E 17:37:16 39° NE 17:43:15 10° NNW
SEDSat Delta rocket 4.2 17:32:38 10° WSW 17:38:10 50° S 17:43:00 10° ESE
GPS 2-04 Rocket1 3.7 17:34:20 10° W 17:38:34 51° SSW 17:42:43 10° ESE
Cosmos 2360 Rocket 3.1 17:36:09 10° SW 17:41:35 50° WNW 17:47:04 10° N
Molniya-1 3.6 17:40:23 10° SSW 17:42:39 58° ESE 17:46:23 10° NE
Cosmos 990 Rocket 4.2 17:39:21 10° N 17:44:28 51° ENE 17:49:33 10° SE
Cosmos 2221 3.8 17:41:19 10° NNW 17:45:24 46° W 17:49:28 10° SSW
Cosmos 2333 Rocket 2.9 17:43:43 10° SSE 17:48:40 32° ESE 17:53:38 10° NE
Cosmos 2298 Rocket 4.2 17:46:55 10° NNW 17:52:13 79° WSW 17:57:30 10° SSE
Cosmos 1766 Rocket 4.2 17:49:20 10° SSW 17:53:44 60° W 17:58:10 10° N
MSX 3.9 17:49:10 10° SSE 17:54:52 90° ENE 18:00:38 10° NNW
Cosmos 841 Rocket 3.5 17:50:50 10° S 17:56:03 70° ESE 18:01:19 10° NNE
Cosmos 2228 Rocket 3.0 17:57:51 10° N 18:02:15 68° E 18:06:39 10° SSE
YAOGAN 1 3.4 17:59:55 10° S 18:04:09 54° W 18:08:24 10° NNW
COSMO-SKYMED 1 2.5 17:59:57 10° NNE 18:04:18 73° ESE 18:08:37 10° S
Cosmos 332 Rocket 3.7 18:01:19 10° S 18:06:06 73° ESE 18:10:55 10° NNE
Cosmos 1937 Rocket 3.7 18:01:36 10° NNW 18:06:47 77° WSW 18:11:59 10° S
SL-14 R/B 4.0 18:03:25 10° SSE 18:06:53 31° E 18:10:23 10° NNE
Aureole 2 Rocket 4.4 18:05:18 10° SE 18:06:46 13° E 18:06:46 13° E
Cosmos 2219 Rocket 2.2 18:04:22 10° S 18:09:58 67° ESE 18:15:34 10° NNE
Cosmos 1908 3.6 18:06:28 10° NNW 18:10:20 67° W 18:14:11 10° S
Cosmos 2084 3.5 18:09:43 10° SSW 18:13:32 48° ESE 18:16:07 18° NE
Cosmos 1484 Rocket 2.9 18:09:42 10° S 18:13:34 81° W 18:17:31 10° NNW
Cosmos 2278 Rocket 3.0 18:09:25 10° N 18:14:17 28° ENE 18:19:07 10° ESE
CZ-4 R/B 4.0 18:13:03 10° SSW 18:16:11 23° W 18:19:19 10° NW
Cosmos 389 Rocket 4.0 18:14:02 10° NNW 18:17:26 40° W 18:20:46 10° SSW
Intelsat 5-1 Rocket 4.1 18:18:08 10° S 18:19:33 12° SSE 18:21:22 10° SE
METEOR-M 4.4 18:14:57 10° SE 18:19:59 44° ENE 18:25:02 10° N
Cosmos 836 Rocket 4.4 18:15:29 10° S 18:20:40 73° ESE 18:25:56 10° NNE
CENTAUR R/B 3.3 18:17:32 10° SW 18:23:22 50° NW 18:29:56 10° NNE
Cosmos 1844 3.7 18:18:38 10° NNW 18:24:20 60° ENE 18:30:03 10° SE
Cosmos 1674 4.4 18:20:56 10° SW 18:24:24 34° W 18:27:55 10° NNW
Lacrosse 5 rocket 3.5 18:26:40 10° NNE 18:26:44 10° NNE 18:26:44 10° NNE
Meteor 2-10 4.4 18:23:09 10° N 18:27:51 37° ENE 18:32:38 10° SE
COSMOS 2428 3.8 18:23:28 10° SW 18:28:55 45° WNW 18:34:23 10° N
Abrixas 4.2 18:28:36 10° S 18:30:36 19° SE 18:30:36 19° SE
ALOS 3.1 18:27:13 10° SE 18:31:04 26° ENE 18:34:56 10° NNE
FREGAT/IRIS 4.5 18:29:20 10° SE 18:30:18 18° SE 18:30:18 18° SE
Hubble Space Telescope 2.7 18:30:49 10° WSW 18:34:07 23° S 18:37:08 11° SE
Cosmos 44 3.5 18:31:17 10° SSW 18:36:30 61° ESE 18:39:29 25° NE
Abrixas rocket 2.6 18:33:40 10° WNW 18:36:58 62° SW 18:38:58 21° SE
Cosmos 371 Rocket 3.4 18:32:41 10° SSW 18:37:29 74° WNW 18:42:18 10° NNE
Cosmos 2237 Rocket 2.1 18:32:06 10° S 18:37:39 68° ESE 18:42:12 16° NNE
Cosmos 1300 2.5 18:36:33 10° N 18:40:23 78° E 18:44:12 10° S
SL-16 R/B 3.0 18:36:12 10° SSE 18:40:57 29° ESE 18:41:30 28° E
Lacrosse 5 4.3 18:42:13 10° NW 18:43:33 11° NNW 18:44:55 10° N
SL-19 R/B 4.5 18:40:03 10° SE 18:45:55 52° ENE 18:51:27 10° N
Cosmos 2058 2.7 18:44:45 10° S 18:48:52 84° E 18:51:51 18° N
Meteor 1-11 4.1 18:45:21 10° S 18:50:59 85° E 18:56:44 10° N
Cosmos 1726 2.5 18:50:04 10° NNW 18:53:48 64° W 18:57:32 10° S
NOAA 12 4.1 18:49:12 10° S 18:54:25 80° WSW 18:59:41 10° NNW
Cosmos 44 Rocket 4.0 18:50:46 10° SW 18:55:48 55° WNW 18:59:13 20° NNE
Cosmos 1805 Rocket 3.5 18:52:18 10° S 18:56:40 59° E 18:57:26 50° NE
SJ-6B 2.8 18:53:08 10° S 18:57:08 85° WSW 19:01:15 10° NNW
Cosmos 372 Rocket 3.9 18:53:13 10° N 18:58:16 58° ENE 19:01:25 22° SE
Cosmos 783 Rocket 4.5 18:58:36 10° SSW 19:03:54 87° WNW 19:07:01 26° NNE
Cosmos 2151 4.1 19:00:12 10° SSW 19:04:14 44° W 19:08:16 10° N
BREEZE-M DEB (TANK) 3.8 19:03:21 10° W 19:04:57 28° WNW 19:04:57 28° WNW
FengYun 1-2 T 4.1 19:01:23 10° SSE 19:06:55 67° ENE 19:12:26 10° N
Cosmos 1151 Rocket 4.3 19:05:57 10° NNW 19:09:57 40° W 19:13:57 10° SSW
Cosmos 540 Rocket 4.1 19:06:58 10° SSW 19:12:00 54° WNW 19:15:49 18° N
OTV 4 2.6 19:10:06 10° WNW 19:11:32 25° WNW 19:11:32 25° WNW
Milstar 3 3.9 19:08:36 10° WSW 19:14:38 37° S 19:19:01 21° SE
Cosmos 1844 Rocket 4.3 19:11:51 10° NW 19:16:55 35° WSW 19:21:57 10° SSW
OAO 3 Rocket 4.2 19:12:57 10° W 19:17:27 38° SSW 19:18:31 34° S
Cosmos 1125 Rocket 4.0 19:13:57 10° NNW 19:19:04 59° WSW 19:24:08 10° S
Resurs 01 Rocket 3.5 19:23:01 20° N 19:23:01 20° N 19:24:27 10° NNW
USA 215 3.7 19:13:35 10° SSE 19:20:02 60° SW 19:26:31 10° NW
Atlas Centaur 2 3.6 19:17:15 10° WSW 19:20:02 17° SSW 19:21:12 15° S
Cosmos 1703 4.0 19:16:36 10° SSW 19:19:33 48° SSW 19:19:33 48° SSW
OAO 1 Rocket 4.3 19:17:36 10° W 19:22:54 78° S 19:23:07 76° SSE
Sich 1 4.5 19:20:32 10° S 19:22:37 28° S 19:22:37 28° S
Spot 2 Rocket 3.4 19:22:29 10° SSE 19:27:33 85° WSW 19:32:37 10° NNW
Cosmos 304 Rocket 3.8 19:23:18 10° SSW 19:27:52 76° WSW 19:27:52 76° WSW
Cosmos 1340 Rocket 4.1 19:25:33 10° SSW 19:29:16 39° WNW 19:29:45 37° WNW
CZ-3A R/B 3.0 19:25:50 10° NW 19:29:46 55° NNE 19:29:46 55° NNE
Cosmos 1538 Rocket 4.5 19:26:36 10° S 19:30:24 48° S 19:30:24 48° S
Cosmos 2333 Rocket 3.8 19:27:53 10° WSW 19:32:51 31° WNW 19:36:58 14° N
FENGYUN 3A 4.0 19:37:28 10° S 19:42:44 60° W 19:48:03 10° NNW
Cosmos 2278 Rocket 3.5 19:53:13 10° NW 19:58:23 36° WSW 20:03:30 10° S
ALOS 4.2 20:04:28 10° SSW 20:08:23 27° W 20:12:21 10° NW
SL-16 R/B 3.8 20:19:46 10° SW 20:23:27 30° W 20:23:27 30° W
